FW8589 Weather Reports


time (UTC)temp
C
wind
direction
speed
KPH
gust
KPH
rain 1hr
cm
rain 24hr
cm
rain mn
cm
humidity
%
barometer
mb
20260507083016 18 113 4.8 12.9 0.00 1.65 1.32 81 1015.8
20260507082018 18 158 11.3 20.9 0.00 1.65 1.32 81 1015.7
20260507081016 18 135 12.9 19.3 0.00 1.65 1.32 81 1015.8
20260507080017 18 158 9.7 20.9 0.00 1.65 1.32 81 1015.9
20260507075017 18 135 9.7 16.1 0.00 1.65 1.32 82 1015.9
20260507074017 18 90 12.9 17.7 0.00 1.65 1.32 81 1015.9
20260507073017 17 113 11.3 17.7 0.00 1.65 1.32 81 1015.9
20260507072016 17 113 14.5 22.5 0.00 1.65 1.32 81 1015.9
20260507071016 17 90 14.5 20.9 0.00 1.65 1.32 82 1016.1
20260507070016 17 90 12.9 20.9 0.00 1.65 1.32 83 1015.9
20260507065233 17 113 14.5 20.9 0.00 1.65 1.32 84 1016.0
20260507064228 17 135 9.7 19.3 0.00 1.65 1.32 86 1015.8
20260507063016 16 90 12.9 19.3 0.00 1.65 1.32 86 1015.6
20260507062016 16 90 17.7 20.9 0.00 1.65 1.32 87 1015.6
20260507061016 16 90 14.5 22.5 0.00 1.65 1.32 89 1015.3
20260507060017 16 90 16.1 20.9 0.00 1.65 1.32 90 1015.3
20260507055017 16 90 14.5 17.7 0.00 1.65 1.32 91 1015.2
20260507054016 15 90 14.5 20.9 0.00 1.65 1.32 92 1015.1
20260507053229 15 68 14.5 20.9 0.00 1.65 1.32 92 1015.2
20260507052016 15 90 12.9 17.7 0.00 1.65 1.32 93 1015.2
20260507051019 15 90 12.9 17.7 0.00 1.65 1.32 93 1015.2
20260507050018 15 90 14.5 20.9 0.00 1.65 1.32 93 1015.2
20260507045017 15 90 14.5 19.3 0.00 1.65 1.32 93 1015.1
20260507044442 15 90 14.5 20.9 0.00 1.65 1.32 94 1015.1
20260507043018 15 90 12.9 19.3 0.00 1.65 1.32 94 1014.9
20260507042017 15 68 14.5 19.3 0.00 1.65 1.32 94 1014.8
20260507041018 15 68 16.1 22.5 0.00 1.68 1.32 94 1014.8
20260507040017 15 68 16.1 20.9 0.00 1.68 1.32 95 1014.6
20260507035022 15 68 14.5 20.9 0.00 1.68 1.32 95 1014.7
20260507034017 15 68 14.5 22.5 0.00 1.73 1.32 95 1014.7
20260507033017 15 90 16.1 20.9 0.00 1.75 1.32 95 1014.8
20260507032227 15 90 16.1 20.9 0.00 1.80 1.32 95 1014.8
20260507031017 15 90 16.1 20.9 0.00 1.80 1.32 95 1014.9
20260507030017 15 68 16.1 24.1 0.00 1.80 1.32 95 1014.8
20260507025230 15 90 16.1 20.9 0.00 1.80 1.32 95 1014.8
20260507024022 15 90 17.7 24.1 0.00 1.80 1.32 96 1015.0
20260507023017 15 90 14.5 20.9 0.00 1.80 1.32 96 1014.9
20260507022017 15 90 17.7 24.1 0.00 1.80 1.32 96 1015.0
20260507021019 15 90 17.7 22.5 0.03 1.80 1.32 96 1014.8
20260507020017 15 90 17.7 24.1 0.03 1.83 1.32 96 1014.8
20260507015017 15 90 16.1 22.5 0.03 1.83 1.32 96 1014.8
20260507014017 15 90 14.5 19.3 0.03 1.85 1.32 96 1014.9
20260507013232 15 90 16.1 22.5 0.03 1.93 1.32 96 1014.9
20260507012228 15 90 12.9 19.3 0.05 2.01 1.32 96 1014.8
20260507011229 15 90 12.9 16.1 0.13 1.98 1.30 96 1014.8
20260507010017 15 90 16.1 20.9 0.13 1.98 1.30 96 1014.9
20260507005017 15 90 17.7 22.5 0.13 1.98 1.30 96 1015.1
20260507004018 15 113 17.7 25.7 0.13 1.98 1.30 96 1015.1
20260507003017 15 90 19.3 25.7 0.13 1.98 1.30 96 1015.0
20260507002017 15 113 16.1 22.5 0.10 1.98 1.27 96 1015.0
20260507001017 15 113 17.7 24.1 0.00 1.88 1.17 96 1014.9
20260507000017 15 113 17.7 25.7 0.00 1.91 1.17 96 1014.9
20260506235017 15 113 17.7 24.1 0.00 1.91 1.17 95 1014.9
20260506234017 15 113 22.5 32.2 0.00 1.91 1.17 95 1015.1
20260506233228 15 135 17.7 30.6 0.13 1.91 1.17 95 1015.0
20260506232016 15 113 25.7 37.0 0.51 1.91 1.17 95 1014.8
20260506231017 16 113 24.1 37.0 0.89 1.91 1.17 95 1014.6
20260506230017 16 113 30.6 45.1 1.17 1.91 1.17 95 1014.4
20260506225017 16 113 25.7 33.8 1.32 1.91 1.17 95 1014.7
20260506224017 16 113 24.1 32.2 1.35 1.91 1.17 96 1014.7
20260506223016 16 113 22.5 32.2 1.22 1.78 1.07 96 1015.0
20260506222017 16 68 12.9 17.7 0.84 1.37 0.66 96 1015.0
20260506221017 16 68 12.9 20.9 0.48 1.02 0.30 96 1015.0
20260506220017 16 90 17.7 20.9 0.18 0.71 0.71 96 1015.0
20260506215016 16 90 16.1 22.5 0.05 0.58 0.58 96 1015.0
20260506214016 16 113 16.1 22.5 0.03 0.56 0.56 96 1015.1
20260506213017 16 135 17.7 29.0 0.05 0.56 0.56 96 1015.2
20260506212017 16 135 20.9 29.0 0.05 0.53 0.53 96 1015.2
20260506211016 16 135 20.9 30.6 0.05 0.53 0.53 96 1015.2
20260506210016 16 135 20.9 30.6 0.08 0.53 0.53 96 1015.2
20260506205017 16 135 17.7 27.4 0.08 0.53 0.53 96 1015.2
20260506204016 16 135 17.7 24.1 0.08 0.53 0.53 96 1015.4
20260506203016 16 135 14.5 22.5 0.05 0.51 0.51 96 1015.3
20260506202016 16 158 14.5 24.1 0.05 0.51 0.51 95 1015.3
20260506201016 16 135 16.1 25.7 0.03 0.48 0.48 95 1015.2
20260506200016 16 135 19.3 29.0 0.00 0.46 0.46 95 1015.2
20260506195016 16 158 12.9 22.5 0.00 0.46 0.46 95 1014.9
20260506194016 16 135 20.9 32.2 0.00 0.46 0.46 95 1014.7
20260506193226 16 135 22.5 30.6 0.03 0.46 0.46 95 1014.4
20260506192016 16 135 25.7 37.0 0.03 0.46 0.46 95 1014.4
20260506191016 16 135 20.9 40.2 0.05 0.46 0.46 95 1014.2
20260506190232 16 135 17.7 25.7 0.05 0.46 0.46 95 1014.1
20260506185019 16 135 19.3 32.2 0.05 0.46 0.46 95 1014.1
20260506184017 16 113 25.7 41.8 0.05 0.46 0.46 95 1014.1
20260506183017 16 135 24.1 33.8 0.05 0.43 0.43 95 1013.9
20260506182018 17 135 22.5 32.2 0.05 0.43 0.43 95 1013.9
20260506181441 17 135 22.5 33.8 0.05 0.43 0.43 95 1014.0
20260506180017 17 135 24.1 33.8 0.03 0.41 0.41 95 1014.0
20260506175017 17 135 19.3 29.0 0.03 0.41 0.41 94 1014.1
20260506174017 17 135 16.1 22.5 0.03 0.41 0.41 94 1014.1
20260506173017 17 158 19.3 27.4 0.00 0.38 0.38 94 1014.2
20260506172017 17 135 19.3 32.2 0.00 0.38 0.38 93 1014.1
20260506171017 17 158 14.5 24.1 0.00 0.38 0.38 92 1014.0
20260506170020 17 158 17.7 29.0 0.00 0.38 0.38 93 1014.1
20260506165018 17 158 20.9 37.0 0.00 0.38 0.38 92 1014.1
20260506164021 17 135 20.9 30.6 0.00 0.38 0.38 91 1014.2
20260506163017 17 135 24.1 32.2 0.00 0.38 0.38 90 1014.2
20260506162019 17 158 17.7 30.6 0.00 0.38 0.38 89 1014.2
20260506161018 17 135 25.7 38.6 0.00 0.38 0.38 88 1014.5
20260506160018 17 135 25.7 40.2 0.00 0.38 0.38 88 1014.4
20260506155018 17 135 22.5 33.8 0.00 0.38 0.38 88 1014.4
20260506154017 17 135 24.1 33.8 0.00 0.38 0.38 87 1014.4
20260506153017 17 135 24.1 38.6 0.00 0.38 0.38 87 1014.4
20260506152017 17 135 25.7 40.2 0.00 0.38 0.38 86 1014.2
20260506151018 17 135 25.7 38.6 0.00 0.38 0.38 86 1014.4
20260506150017 17 135 29.0 43.5 0.00 0.38 0.38 86 1014.3
20260506145017 17 135 25.7 38.6 0.00 0.38 0.38 85 1014.4
20260506144018 17 135 32.2 45.1 0.00 0.38 0.38 85 1014.3
20260506143017 18 135 25.7 45.1 0.00 0.38 0.38 85 1014.2
20260506142017 18 135 25.7 40.2 0.00 0.38 0.38 85 1014.1
20260506141018 18 113 25.7 43.5 0.00 0.38 0.38 85 1014.3
20260506140017 18 135 30.6 43.5 0.00 0.38 0.38 85 1014.3
20260506135017 18 113 30.6 43.5 0.00 0.38 0.38 84 1014.3
20260506134230 18 135 29.0 46.7 0.00 0.38 0.38 83 1014.6
20260506133017 18 135 29.0 41.8 0.00 0.38 0.38 84 1014.4
20260506132018 18 135 27.4 45.1 0.00 0.38 0.38 83 1014.4
20260506131017 18 135 24.1 43.5 0.00 0.38 0.38 84 1014.6
20260506130016 18 113 25.7 41.8 0.00 0.38 0.38 83 1014.7
20260506125016 18 135 24.1 37.0 0.00 0.38 0.38 84 1014.7
20260506124018 18 135 27.4 38.6 0.00 0.38 0.38 84 1014.8
20260506123017 17 135 22.5 32.2 0.00 0.38 0.38 85 1014.9
20260506122016 17 135 22.5 40.2 0.00 0.38 0.38 85 1014.8
20260506121016 17 135 24.1 35.4 0.00 0.38 0.38 85 1014.9
20260506120017 17 135 25.7 40.2 0.00 0.38 0.38 85 1015.1
20260506115018 17 113 22.5 32.2 0.00 0.38 0.38 85 1014.9
20260506114016 17 135 25.7 40.2 0.00 0.38 0.38 85 1015.0
20260506113016 17 135 25.7 38.6 0.00 0.38 0.38 85 1015.0
20260506112016 17 135 29.0 48.3 0.00 0.38 0.38 85 1014.9
20260506111016 17 135 25.7 40.2 0.00 0.38 0.38 85 1015.0
20260506110016 17 135 27.4 40.2 0.00 0.38 0.38 84 1014.7
20260506105229 18 135 27.4 38.6 0.00 0.38 0.38 84 1015.0
20260506104016 18 135 24.1 38.6 0.00 0.38 0.38 83 1015.2
20260506103444 18 135 27.4 46.7 0.00 0.38 0.38 81 1015.3
20260506102016 18 135 27.4 40.2 0.00 0.38 0.38 80 1015.1
20260506101016 18 135 27.4 40.2 0.00 0.38 0.38 81 1015.1
20260506100016 18 135 32.2 43.5 0.00 0.38 0.38 79 1015.2
20260506095016 18 135 32.2 45.1 0.00 0.38 0.38 77 1015.0
20260506094016 18 135 29.0 46.7 0.00 0.38 0.38 75 1015.1
20260506093440 18 135 27.4 41.8 0.00 0.38 0.38 75 1015.2
20260506092016 17 135 32.2 46.7 0.00 0.38 0.38 76 1014.9
20260506091229 18 135 32.2 43.5 0.00 0.38 0.38 77 1014.7
20260506090016 18 135 24.1 35.4 0.00 0.38 0.38 79 1014.5
20260506085016 17 135 24.1 35.4 0.00 0.38 0.38 78 1014.6
20260506084017 17 135 25.7 40.2 0.00 0.38 0.38 78 1014.8